Regional Weather Roundup
Issued by NWS

Home | Current Version | Previous Version | Graphics & Text | Print | Product List | Glossary On
Versions: 1 2 3 4 5 6 7 8 9 10 11 12 13 14 15 16 17 18 19 20 21 22 23 24 25 26 27 28 29 30 31 32 33 34 35 36 37 38 39 40 41 42 43 44 45 46 47 48 49 50
685
ASUS43 KBIS 202010
RWRND

NORTH DAKOTA REGIONAL WEATHER ROUNDUP
NATIONAL WEATHER SERVICE BISMARCK ND
300 PM CDT THU JUL 20 2017

NOTE: "FAIR" INDICATES FEW OR NO CLOUDS BELOW 12,000 FEET WITH NO
SIGNIFICANT WEATHER AND/OR OBSTRUCTIONS TO VISIBILITY.


NDZ001>003-009>011-017-202100-
NORTHWEST NORTH DAKOTA

CITY           SKY/WX    TMP DP  RH WIND       PRES   REMARKS
WILLISTON      MOSUNNY   84  66  54 NE17G23   29.88F
MINOT          SUNNY     93  60  33 VRB6      29.90F HX  93
MINOT AFB      CLOUDY    88  61  39 SW6       29.89F
$$

NDZ018>021-031>035-040>046-202100-
SOUTHWEST NORTH DAKOTA

CITY           SKY/WX    TMP DP  RH WIND       PRES   REMARKS
BISMARCK       SUNNY     94  56  27 S15G25    29.94F HX  92
DICKINSON      SUNNY     96  55  25 S21G32    29.89F HX  94
GARRISON         N/A     93  59  31 S13       29.90F HX  92
HETTINGER ARPT SUNNY     95  57  27 SE17G29   29.94F HX  94
$$

NDZ004>008-012>016-024-026-027-054-202100-
NORTHEAST NORTH DAKOTA

CITY           SKY/WX    TMP DP  RH WIND       PRES   REMARKS
GRAND FORKS    MOSUNNY   83  61  47 SW7       29.97F
GRND FRKS AFB  SUNNY     81  60  49 S3        29.98F
DEVILS LAKE    SUNNY     85  63  47 E13       29.97F
$$

NDZ022-023-025-028>030-036>039-047>053-202100-
SOUTHEAST NORTH DAKOTA

CITY           SKY/WX    TMP DP  RH WIND       PRES   REMARKS
FARGO          SUNNY     87  61  41 SE8       29.98F
JAMESTOWN      SUNNY     87  66  49 S13       29.97F
$$





USA.gov is the U.S. government's official web portal to all federal, state and local government web resources and services.